Main page
METAR-TAF:

METAR-TAF

Airports :

Lavan Island, Iran

Lavan Airport

latitude: 26-48-37N, longitude: 53-21-22E, elevation: 23 m

Current weather observation

The report was made 1 hour and 43 minutes ago, at 08:00 UTC
Wind 8 kt from the South/Southeast
Temperature 33°C
Humidity 41%
Pressure 1008 hPa
Visibility: 8000 m

METAR: OIBV 220800Z 16008KT 8000 NSC 33/18 Q1008

Time: 13:13 (09:43 UTC)


TAF: missing

Weather observations and forecasts of more than 4000 airports (METAR and TAF reports).

The available stations are represented by yellow and red dots on the map.

Hover mouse over dot to see the name of the station.

Then click to see weather observations and forecasts.

To change the map : click on the green buttons with a black cross to zoom in, on the green button with a dash to zoom out, or on the green arrows for adjacent maps.


METAR-TAF: